Date,TemperatureHighF,TemperatureAvgF,TemperatureLowF,DewpointHighF,DewpointAvgF,DewpointLowF,HumidityHigh,HumidityAvg,HumidityLow,PressureMaxIn,PressureMinIn,WindSpeedMaxMPH,WindSpeedAvgMPH,GustSpeedMaxMPH,PrecipitationSumIn
2012-1-1,50.2,42.4,34.4,34.0,23.1,12.5,74,49,24,30.52,29.88,12,5,17,0.00
2012-1-2,36.8,29.7,19.4,12.7,6.8,-0.8,64,39,21,30.67,30.51,9,4,18,0.00
2012-1-3,47.4,31.2,13.8,17.8,11.5,5.0,78,48,24,30.60,30.19,5,1,11,0.00
2012-1-4,54.4,36.7,25.0,32.9,25.1,17.8,86,65,42,30.33,30.15,6,1,10,0.00
2012-1-5,65.5,42.0,25.0,33.0,27.0,21.4,87,61,25,30.29,29.96,6,1,11,0.00
2012-1-6,68.6,46.6,29.8,43.8,34.6,25.8,90,67,28,29.97,29.81,8,2,19,0.00
2012-1-7,54.7,44.9,31.9,33.0,24.4,19.2,86,47,26,30.19,29.97,6,2,7,0.00
2012-1-8,46.7,42.3,31.2,29.4,26.0,22.5,84,53,44,30.26,30.16,4,1,6,0.00
2012-1-9,51.1,33.5,22.9,33.0,24.7,20.7,93,73,31,30.30,30.17,6,1,7,0.00
2012-1-10,52.6,37.6,21.8,39.2,26.8,19.1,93,70,34,30.17,29.71,5,1,8,0.14
2012-1-11,57.3,43.2,29.5,39.6,34.0,24.9,96,74,35,29.84,29.60,11,2,21,0.02
2012-1-12,29.4,22.1,18.3,25.7,14.3,7.9,88,72,52,30.09,29.85,9,4,18,0.00
2012-1-13,34.0,21.9,13.3,13.4,7.3,2.3,78,55,29,30.25,30.08,5,1,11,0.00
2012-1-14,48.0,33.1,19.7,29.7,22.3,12.8,89,66,47,30.34,30.02,8,2,14,0.00
2012-1-15,55.7,39.9,20.8,31.0,26.5,17.9,91,62,33,30.33,30.00,9,4,14,0.00
2012-1-16,68.8,58.9,42.8,55.3,48.0,31.1,76,68,53,30.00,29.66,9,4,15,0.00
2012-1-17,65.2,37.0,21.4,55.8,26.5,13.0,83,66,47,30.44,29.63,12,6,17,0.00
2012-1-18,39.2,25.0,11.2,18.6,14.4,7.6,87,66,36,30.44,30.03,4,1,10,0.00
2012-1-19,55.1,36.8,22.9,29.6,22.8,17.4,82,59,35,30.03,29.88,6,1,10,0.00
2012-1-20,38.9,32.0,25.8,37.2,29.2,19.6,96,89,77,30.06,29.78,10,4,15,0.00
2012-1-21,36.5,27.3,18.6,27.3,21.1,13.1,93,77,62,30.23,29.92,9,4,14,0.00
2012-1-22,57.3,40.7,29.0,49.3,37.5,25.3,98,89,46,29.94,29.47,10,6,21,0.00
2012-1-23,52.2,40.1,26.1,33.6,27.5,20.8,82,63,35,30.13,29.62,7,2,14,0.00
2012-1-24,58.6,39.6,21.1,28.7,23.1,17.8,90,57,23,30.29,30.13,8,1,10,0.00
2012-1-25,43.9,41.1,38.5,40.9,37.7,27.1,95,89,53,30.20,29.91,8,2,11,1.20
2012-1-26,46.5,38.8,30.6,39.7,36.1,26.1,97,90,66,29.94,29.80,9,2,10,0.06
2012-1-27,47.0,36.7,23.2,38.3,30.7,20.7,94,80,61,30.15,29.93,11,2,15,0.01
2012-1-28,46.4,35.2,22.2,31.9,21.1,14.2,89,59,28,30.44,30.16,14,2,20,0.00
2012-1-29,57.5,35.9,23.3,28.6,22.7,17.7,79,62,27,30.38,30.23,4,0,12,0.00
2012-1-30,66.3,48.4,30.0,43.4,34.0,24.3,80,59,33,30.22,30.01,7,2,14,0.00
2012-1-31,63.5,55.8,44.1,52.5,46.7,34.3,91,72,60,30.04,29.91,7,2,18,0.00
2012-2-1,63.9,46.5,31.6,48.9,35.0,26.4,97,70,29,30.22,30.04,7,1,12,0.00
2012-2-2,62.6,45.6,24.8,37.8,27.5,22.3,95,56,23,30.31,30.17,8,3,13,0.00
2012-2-3,52.5,47.9,45.4,51.4,39.9,30.7,97,76,45,30.16,29.92,11,6,20,0.66
2012-2-4,52.5,46.0,37.2,51.4,42.5,34.8,96,88,76,30.23,29.94,4,2,12,0.00
2012-2-5,43.5,35.7,26.1,34.8,31.7,23.6,92,86,67,30.38,30.23,5,2,11,0.00
2012-2-6,54.2,34.4,20.3,34.5,25.7,18.1,95,74,35,30.40,30.24,4,0,6,0.00
2012-2-7,45.1,35.1,24.5,37.6,31.0,22.0,93,86,60,30.38,30.26,6,1,10,0.07
2012-2-8,37.8,34.4,31.5,36.0,29.7,27.4,94,83,70,30.50,30.38,7,3,11,0.00
2012-2-9,41.2,36.5,32.5,32.8,28.6,26.0,87,73,60,30.42,30.17,3,1,5,0.01
2012-2-10,38.6,32.7,16.9,37.6,26.8,5.7,96,80,48,30.42,30.08,12,4,20,0.08
2012-2-11,28.2,18.6,11.1,7.5,3.6,-1.4,72,54,28,30.74,30.42,15,6,22,0.00
2012-2-12,39.5,25.7,8.8,8.7,2.2,-4.1,77,42,16,30.71,30.26,5,1,6,0.00
2012-2-13,33.7,30.3,27.0,31.1,23.9,3.8,95,81,28,30.25,29.87,7,3,17,0.01
2012-2-14,47.9,37.6,32.5,35.0,32.5,30.3,96,82,58,30.02,29.88,6,1,11,0.30
2012-2-15,47.7,41.6,35.3,45.7,39.6,32.0,98,93,84,30.03,29.89,7,3,13,0.19
2012-2-16,52.6,41.9,28.8,46.3,36.4,26.0,98,83,44,30.31,30.01,9,2,12,0.00
2012-2-17,56.6,43.8,29.8,43.2,36.6,27.2,93,77,56,30.26,30.10,7,1,9,0.02
2012-2-18,45.5,42.0,37.9,43.0,33.7,25.4,96,74,55,30.15,30.06,6,2,10,0.03
2012-2-19,53.8,40.5,29.1,30.0,25.9,19.7,87,59,27,30.14,30.06,7,1,9,0.00
2012-2-20,55.9,44.1,33.7,40.2,29.0,23.1,88,58,31,30.16,29.76,12,6,19,0.15
2012-2-21,58.3,45.5,33.7,35.1,29.8,21.0,77,58,24,30.03,29.78,6,2,13,0.00
2012-2-22,70.6,47.7,28.1,46.7,32.4,23.9,89,61,21,29.84,29.45,6,1,17,0.00
2012-2-23,71.5,50.1,39.8,42.4,34.8,26.7,81,58,28,29.74,29.24,8,3,18,0.00
2012-2-24,49.8,39.0,29.1,28.3,21.6,12.5,70,52,25,30.26,29.74,23,4,23,0.00
2012-2-25,52.2,39.4,22.5,26.1,21.5,18.1,88,52,28,30.40,30.13,14,2,14,0.00
2012-2-26,63.9,48.4,36.8,36.7,28.3,21.5,70,49,25,30.17,30.00,22,3,22,0.00
2012-2-27,60.4,48.0,34.6,37.4,27.8,20.9,85,49,24,30.43,30.17,16,2,16,0.00
2012-2-28,66.0,53.9,38.9,57.5,41.3,25.9,88,63,47,30.32,29.62,22,5,22,0.01
2012-2-29,65.8,47.8,36.2,59.1,35.9,25.8,92,67,31,29.93,29.62,16,1,16,0.59
2012-3-1,74.6,51.6,29.5,37.2,29.8,20.7,85,50,18,29.93,29.53,24,2,24,0.00
2012-3-2,59.5,45.7,27.0,53.8,36.8,23.5,88,72,56,29.96,29.36,23,3,23,0.00
2012-3-3,49.8,36.4,24.7,28.6,22.4,15.2,92,62,27,30.09,29.96,23,2,23,0.00
2012-3-4,63.4,46.7,23.3,33.7,26.2,19.1,86,50,25,30.14,29.89,24,3,24,0.00
2012-3-5,60.9,46.4,27.2,29.0,22.3,14.9,79,43,17,30.40,30.14,16,3,16,0.00
2012-3-6,70.8,57.9,44.3,43.0,33.3,25.0,59,42,20,30.19,29.93,25,5,25,0.00
2012-3-7,66.8,62.7,58.0,54.3,49.8,42.4,73,63,56,29.98,29.89,20,4,20,0.00
2012-3-8,62.6,41.7,30.0,53.8,36.6,26.7,92,82,71,30.54,29.92,25,5,25,0.20
2012-3-9,61.8,42.5,26.0,31.5,25.1,20.3,91,57,21,30.58,30.46,16,2,16,0.00
2012-3-10,64.0,47.7,29.3,31.1,26.4,17.6,89,48,17,30.48,30.21,14,2,14,0.00
2012-3-11,56.3,51.8,48.2,55.2,45.2,30.4,96,80,47,30.22,29.89,19,6,19,0.50
2012-3-12,78.8,61.4,48.2,55.4,48.7,41.4,97,69,28,30.01,29.84,18,2,18,0.01
2012-3-13,83.4,61.6,41.8,58.0,47.3,40.0,97,66,24,30.10,29.96,14,1,14,0.00
2012-3-14,83.0,68.5,55.7,62.8,56.7,51.8,91,69,38,30.05,29.95,16,2,16,0.00
2012-3-15,79.6,68.3,57.8,63.2,58.8,53.5,89,73,53,30.09,29.97,16,2,16,0.00
2012-3-16,81.6,67.3,58.0,64.7,58.2,54.7,93,75,46,30.09,29.93,14,2,14,0.00
2012-3-17,81.8,68.8,58.6,62.1,56.6,49.8,89,68,35,30.02,29.87,19,2,19,0.00
2012-3-18,79.0,69.4,61.2,61.0,56.8,53.1,86,66,45,29.98,29.86,17,2,17,0.00
2012-3-19,73.2,67.4,58.7,63.6,59.0,54.7,89,75,58,29.87,29.70,29,5,29,0.20
2012-3-20,70.3,58.8,55.4,60.0,56.4,54.0,96,92,64,29.88,29.72,22,2,22,1.68
2012-3-21,63.2,58.3,51.6,59.6,56.4,50.5,96,93,84,29.90,29.68,30,3,30,0.52
2012-3-22,64.5,53.5,45.1,51.0,48.4,43.5,97,84,50,29.99,29.85,20,4,20,0.42
2012-3-23,55.6,50.2,43.5,48.9,46.5,41.6,95,87,73,29.96,29.83,15,1,15,0.03
2012-3-24,72.8,57.7,43.3,54.2,47.7,42.0,97,73,41,30.01,29.93,17,2,17,0.00
2012-3-25,78.6,59.9,42.8,58.3,50.4,41.5,98,75,40,30.11,30.01,12,0,12,0.00
2012-3-26,81.2,66.6,50.1,59.2,54.4,48.3,96,68,37,30.12,29.97,12,2,12,0.00
2012-3-27,82.8,68.2,57.8,60.9,55.0,49.5,86,65,35,30.05,29.91,15,2,15,0.00
2012-3-28,80.7,67.2,54.4,62.6,57.2,52.1,95,72,45,30.03,29.88,7,0,7,0.00
2012-3-29,80.3,65.8,51.7,59.4,53.8,49.7,94,68,38,29.95,29.77,11,1,12,0.00
2012-3-30,79.8,66.1,55.3,63.0,57.2,51.3,96,75,44,29.82,29.71,9,1,9,0.00
2012-3-31,84.0,66.9,52.0,66.3,57.1,50.6,98,74,36,29.86,29.75,6,0,6,0.00
2012-4-1,89.3,71.9,55.9,66.6,59.5,53.5,95,69,36,29.75,29.55,14,1,14,0.00
2012-4-2,89.0,73.3,59.0,64.6,56.8,43.0,95,61,22,29.75,29.59,13,1,13,0.00
2012-4-3,79.4,67.1,59.9,61.2,57.4,54.6,89,72,46,29.87,29.73,8,0,8,0.00
2012-4-4,74.7,65.3,54.8,60.9,57.1,51.3,95,76,50,29.79,29.65,11,0,11,0.00
2012-4-5,66.3,54.0,45.5,56.4,49.6,43.6,96,86,68,30.01,29.68,16,1,16,0.00
2012-4-6,69.9,54.3,40.9,47.3,40.3,32.6,96,64,28,30.17,30.01,8,0,10,0.00
2012-4-7,60.7,54.3,45.8,56.4,44.7,34.1,95,71,47,30.30,30.09,16,1,16,0.29
2012-4-8,69.4,55.6,43.6,54.6,41.8,31.6,95,65,27,30.39,30.20,14,0,14,0.00
2012-4-9,73.0,57.7,41.2,53.6,46.8,39.3,96,71,37,30.24,30.06,6,0,6,0.00
2012-4-10,67.9,56.6,45.2,52.2,40.4,30.0,93,59,27,30.20,30.05,14,1,14,0.01
2012-4-11,63.1,50.4,40.9,40.8,31.5,23.6,83,52,23,30.31,30.17,11,0,11,0.00
2012-4-12,60.4,51.9,43.1,41.0,34.5,27.3,62,52,37,30.22,30.02,16,3,16,0.00
2012-4-13,72.3,61.2,48.0,60.8,51.5,38.9,88,71,57,30.02,29.89,15,3,15,0.45
2012-4-14,76.8,68.8,60.1,65.1,60.3,58.2,96,75,56,29.96,29.69,20,3,20,0.49
2012-4-15,70.1,64.6,52.9,64.1,58.5,49.4,95,81,69,29.74,29.61,17,3,17,0.57
2012-4-16,66.9,55.5,45.1,49.1,44.2,39.0,91,67,43,30.26,29.74,13,1,14,0.00
2012-4-17,72.3,57.9,38.0,51.2,44.1,36.4,97,65,31,30.32,30.21,11,1,11,0.00
2012-4-18,73.7,59.4,45.1,50.2,45.1,37.0,94,64,29,30.23,29.98,13,1,13,0.00
2012-4-19,79.0,63.9,47.6,53.8,47.3,42.3,86,58,29,29.98,29.72,20,2,20,0.00
2012-4-20,63.2,50.7,38.2,57.2,45.5,35.6,95,83,64,30.06,29.72,18,3,18,0.09
2012-4-21,63.5,47.9,31.3,45.0,38.4,29.8,96,73,38,30.08,29.97,11,1,11,0.00
2012-4-22,56.9,49.5,40.2,46.0,40.4,38.1,96,73,52,30.18,29.95,26,3,26,0.00
2012-4-23,62.6,50.1,37.0,44.7,39.3,34.1,96,70,41,30.22,30.02,13,1,13,0.00
2012-4-24,79.6,58.6,37.2,54.6,45.9,35.6,97,68,35,30.03,29.67,15,1,15,0.00
2012-4-25,87.0,74.0,57.6,65.9,59.2,48.2,86,62,38,29.69,29.55,17,1,17,0.00
2012-4-26,83.6,71.0,59.5,64.2,56.8,45.5,96,65,30,29.92,29.68,11,0,11,0.00
2012-4-27,67.8,62.7,56.7,55.8,53.0,50.1,82,71,61,29.94,29.73,22,4,23,0.01
2012-4-28,76.7,68.6,58.6,65.6,61.6,55.4,95,79,65,29.93,29.76,9,1,9,0.00
2012-4-29,78.3,70.1,64.7,64.9,62.5,58.9,91,78,53,30.01,29.89,13,1,13,0.00
2012-4-30,74.9,67.1,59.9,64.0,61.5,58.6,96,83,62,30.00,29.89,13,0,13,0.54
2012-5-1,82.8,72.0,60.4,67.6,62.2,57.5,94,73,49,29.90,29.76,16,2,21,0.26
2012-5-2,86.1,76.4,63.9,66.0,63.3,60.6,91,66,43,29.86,29.76,17,2,17,0.00
2012-5-3,80.7,73.0,65.6,69.7,66.4,62.6,92,80,66,29.92,29.83,14,3,18,0.00
2012-5-4,86.1,79.2,65.2,72.4,69.1,64.3,97,72,61,29.92,29.78,5,2,8,0.00
2012-5-5,73.5,66.0,63.7,66.3,63.3,61.8,96,91,78,29.84,29.83,0,0,0,0.00
2012-5-6,86.8,72.2,62.6,74.8,63.6,59.2,89,75,54,29.84,29.77,3,0,0,0.06
2012-5-7,73.7,65.3,59.2,65.8,61.4,56.9,97,88,69,29.97,29.76,7,2,13,0.43
2012-5-8,72.1,61.5,52.2,56.3,50.4,41.9,95,70,35,30.06,29.97,3,0,8,0.00
2012-5-9,70.3,58.5,45.7,52.2,46.7,41.3,96,69,38,30.06,29.96,4,1,11,0.00
2012-5-10,75.1,59.4,42.2,54.1,47.4,40.6,97,69,37,30.02,29.92,2,0,5,0.00
2012-5-11,70.3,61.5,48.8,56.7,51.1,46.0,93,71,49,30.11,29.95,4,1,8,0.00
2012-5-12,77.2,63.7,56.7,56.8,55.1,50.1,93,76,42,30.15,30.08,2,0,5,0.00
2012-5-13,60.5,57.3,55.9,55.5,54.2,53.1,95,90,82,30.14,30.12,2,0,3,0.00
2012-5-14,75.8,62.6,49.9,56.1,49.9,44.2,97,69,33,30.14,30.03,3,0,7,0.00
2012-5-15,79.0,69.8,54.1,55.9,50.3,45.0,89,54,32,30.05,29.99,2,0,2,0.00
2012-5-16,82.8,65.5,48.0,60.4,51.7,46.3,97,66,31,30.05,29.97,3,1,7,0.00
2012-5-17,83.8,63.2,46.4,56.4,47.6,40.9,96,64,22,30.05,29.91,4,0,7,0.00
2012-5-18,86.1,72.3,54.8,58.5,52.7,47.2,78,53,31,29.97,29.82,4,1,7,0.00
2012-5-19,85.7,73.4,58.7,61.5,58.5,55.7,94,63,38,29.97,29.86,6,2,12,0.00
2012-5-20,79.6,69.0,61.5,64.7,60.7,57.5,95,76,51,30.10,29.96,1,0,4,0.05
2012-5-21,71.8,62.1,48.6,62.5,49.7,40.7,95,67,33,30.20,30.09,6,2,11,0.00
2012-5-22,74.2,53.5,40.8,52.5,44.2,38.8,96,75,30,30.11,29.85,3,0,6,0.00
2012-5-23,86.3,71.7,55.7,58.8,51.3,45.7,79,51,33,29.85,29.58,6,3,13,0.00
2012-5-24,86.5,75.7,66.9,67.9,60.8,55.8,77,61,48,29.72,29.53,7,3,11,0.00
2012-5-25,89.9,79.1,68.6,70.0,66.1,64.0,87,66,45,29.88,29.72,6,2,13,0.00
2012-5-26,93.2,78.8,66.8,69.0,63.8,54.7,92,65,28,29.98,29.88,5,1,9,0.00
2012-5-27,90.7,78.2,62.7,64.3,57.9,50.8,92,55,26,29.97,29.79,5,1,11,0.00
2012-5-28,89.7,79.2,69.1,69.0,63.3,55.5,85,60,43,29.85,29.74,4,1,10,0.00
2012-5-29,91.8,73.4,63.6,67.7,61.5,47.0,95,71,24,29.88,29.74,5,0,6,0.17
2012-5-30,67.8,65.5,64.8,62.9,60.4,56.7,92,84,75,29.91,29.81,7,1,11,0.03
2012-5-31,72.7,64.9,57.1,65.6,57.6,49.7,96,78,57,29.92,29.68,7,3,0,1.65
2012-6-1,56.9,54.3,52.0,50.5,48.9,47.3,85,82,79,29.96,29.91,5,2,5,0.00
2012-6-4,88.0,82.7,70.8,69.3,66.1,63.1,82,59,45,29.82,29.74,4,1,6,0.00
2012-6-5,83.8,73.8,63.5,65.1,58.4,49.9,94,62,32,29.89,29.75,3,0,6,0.00
2012-6-6,83.0,70.1,54.5,58.6,54.2,51.6,92,60,37,29.99,29.87,4,0,7,0.00
2012-6-7,67.6,59.8,52.8,52.8,50.1,48.9,90,71,58,30.06,29.99,0,0,1,0.00
2012-6-8,82.8,75.2,60.7,56.8,52.2,44.4,81,48,29,30.04,29.89,2,0,4,0.00
2012-6-9,88.4,73.5,55.6,66.3,57.4,51.8,94,61,30,29.92,29.74,5,2,12,0.00
2012-6-10,87.4,77.6,67.3,67.5,63.9,58.8,89,64,43,29.81,29.72,6,3,12,0.00
2012-6-11,77.5,70.6,62.1,70.2,66.3,60.1,95,87,72,29.99,29.77,13,1,20,0.50
2012-6-12,82.6,67.8,57.8,63.3,56.7,49.4,96,73,33,30.14,29.99,4,0,10,0.00
2012-6-13,81.6,68.4,52.3,63.5,55.3,48.6,92,66,43,30.09,29.96,5,1,10,0.00
2012-6-14,84.5,66.2,55.4,59.6,55.6,49.7,94,73,34,30.01,29.96,4,1,9,0.00
2012-6-16,91.2,78.1,65.0,69.4,64.7,60.1,93,66,39,30.06,29.90,4,1,9,0.00
2012-6-17,89.7,79.2,69.9,69.3,66.4,62.6,93,67,45,30.00,29.77,3,1,9,0.01
2012-6-18,91.6,80.7,68.8,68.2,62.4,53.7,86,57,28,29.81,29.74,5,2,10,0.00
2012-6-19,88.6,81.0,70.6,67.3,64.9,62.0,83,60,43,29.90,29.80,7,3,16,0.00
2012-6-20,88.6,81.1,72.5,68.0,64.6,60.0,80,59,41,29.96,29.88,4,2,10,0.00
2012-6-21,83.4,75.8,65.6,67.2,65.4,63.1,92,71,51,30.01,29.96,4,1,10,0.04
2012-6-22,89.7,76.0,62.1,65.7,59.0,50.5,96,61,29,30.02,29.88,2,0,4,0.00
2012-6-23,94.9,78.9,65.5,64.6,58.6,54.4,77,52,28,29.96,29.82,4,1,10,0.00
2012-6-24,97.5,83.7,67.8,68.4,59.9,54.7,74,47,27,29.94,29.83,2,0,6,0.00
2012-6-25,86.3,86.1,82.4,69.3,69.2,67.6,61,57,56,29.79,29.76,0,0,0,0.00
2012-6-26,95.6,83.5,72.1,67.9,57.9,45.7,69,44,31,29.88,29.77,7,1,0,0.00
2012-6-27,88.0,75.0,69.4,58.4,48.1,45.0,53,39,24,29.92,29.83,6,2,1,0.00
2012-6-28,103.3,83.0,61.6,60.8,53.3,44.7,77,42,14,29.97,29.88,2,0,6,0.00
2012-6-29,101.2,84.0,65.3,65.1,59.6,53.7,84,49,22,29.94,29.77,3,0,7,0.00
2012-6-30,99.7,84.1,65.5,64.7,59.5,51.5,88,49,20,29.88,29.77,2,0,10,0.00
2012-7-1,99.2,83.1,67.9,69.5,60.4,52.3,88,52,22,29.97,29.84,10,1,15,0.31
2012-7-2,94.3,81.1,68.6,68.0,65.5,62.3,92,63,35,30.02,29.89,6,0,9,0.01
2012-7-3,96.3,78.9,68.6,69.0,65.0,58.5,91,66,34,29.98,29.86,3,0,6,0.00
2012-7-4,100.2,85.6,65.2,66.0,59.1,49.9,87,47,19,29.97,29.83,3,0,7,0.00
2012-7-5,101.0,85.1,68.4,66.5,60.7,47.9,84,50,17,30.00,29.86,3,0,6,0.00
2012-7-6,104.4,86.9,68.8,67.6,62.6,55.5,85,50,21,29.99,29.87,3,1,7,0.00
2012-7-7,102.0,81.7,73.9,71.7,66.2,58.7,87,63,25,29.97,29.90,6,1,9,0.02
2012-7-8,99.2,47.6,67.8,69.9,1.7,-99.9,94,45,27,30.05,29.82,11,-388,17,0.00
2012-7-9,75.1,74.2,73.3,69.7,69.3,68.9,86,85,83,29.99,29.97,2,0,3,0.00
2012-7-10,93.2,84.3,71.5,71.0,62.0,52.5,95,51,27,29.98,29.86,4,1,9,0.00
2012-7-11,91.8,77.1,64.3,70.9,62.7,53.5,95,66,28,29.99,29.90,3,0,4,0.00
2012-7-12,94.9,80.6,65.3,68.3,62.3,55.2,94,58,28,29.98,29.90,3,0,6,0.00
2012-7-13,95.4,79.7,66.0,68.7,63.5,54.9,94,62,27,30.01,29.92,5,1,12,0.00
2012-7-14,76.0,73.2,68.4,68.4,66.6,60.5,93,80,71,30.05,29.94,2,0,6,0.00
2012-7-15,91.0,77.8,63.4,71.5,66.6,61.9,96,72,41,30.07,29.93,5,1,7,0.00
2012-7-16,93.4,82.2,70.6,70.5,67.9,61.7,94,65,35,30.00,29.84,5,1,6,0.00
2012-7-17,97.1,84.7,69.6,69.7,66.2,60.0,92,58,31,29.92,29.81,3,0,9,0.00
2012-7-18,100.2,84.9,69.4,68.5,64.0,56.6,89,55,25,29.96,29.81,2,0,6,0.00
2012-7-19,103.1,86.6,72.0,68.5,63.4,54.5,83,52,21,29.99,29.81,5,1,8,0.00
2012-7-20,98.5,84.6,70.4,68.9,61.3,51.5,83,51,22,29.97,29.88,8,2,14,0.00
2012-7-21,97.3,82.6,68.3,66.8,60.2,52.0,86,52,23,30.01,29.91,3,0,10,0.00
2012-7-22,98.5,83.1,65.3,68.9,61.1,55.9,89,52,27,30.06,29.96,3,1,11,0.00
2012-7-23,101.0,87.5,72.1,70.6,64.2,55.7,86,50,27,30.08,29.93,3,1,10,0.00
2012-7-24,98.7,86.3,70.8,69.4,64.1,59.3,80,51,28,30.01,29.82,3,0,6,0.00
2012-7-25,101.7,88.1,72.8,68.4,63.5,58.2,78,47,26,29.87,29.69,3,1,8,0.00
2012-7-26,97.3,85.5,75.8,71.3,66.6,61.3,86,55,35,29.87,29.70,9,1,11,0.00
2012-7-27,102.5,84.7,67.3,71.1,61.7,48.3,94,54,18,29.94,29.86,8,1,13,0.00
2012-7-28,101.2,83.4,62.3,60.7,55.0,49.4,86,44,20,30.05,29.95,4,1,9,0.00
2012-7-29,104.4,88.2,74.4,66.1,61.5,52.2,66,44,20,29.99,29.81,4,1,13,0.00
2012-7-30,106.2,88.0,71.1,64.5,58.6,50.9,73,43,17,29.90,29.79,5,1,10,0.00
2012-7-31,96.1,85.6,78.1,70.0,64.6,57.7,66,51,29,29.92,29.82,2,0,4,0.00
2012-8-1,102.0,84.5,73.2,72.8,67.6,60.5,93,62,27,29.89,29.73,5,1,13,0.23
2012-8-2,100.4,86.9,75.6,71.4,67.4,62.0,81,55,29,29.80,29.62,7,2,11,0.00
2012-8-3,101.2,87.7,75.6,72.7,65.5,57.1,82,51,25,29.77,29.68,3,0,6,0.00
2012-8-4,106.5,90.8,72.8,69.2,64.4,59.0,88,45,22,29.94,29.73,5,1,12,0.13
2012-8-5,91.4,78.7,68.6,72.9,64.1,49.5,95,67,26,30.10,29.96,6,1,10,0.25
2012-8-6,96.1,78.9,60.9,66.7,58.9,49.6,96,58,22,30.11,29.94,4,1,10,0.00
2012-8-7,99.0,80.7,62.6,68.7,59.3,51.3,89,55,21,29.97,29.88,3,0,6,0.00
2012-8-8,98.7,78.2,67.6,67.6,62.2,56.9,84,60,32,29.97,29.82,6,1,8,0.06
2012-8-9,91.6,80.3,65.5,65.4,62.2,57.5,89,56,36,29.92,29.77,8,2,12,0.00
2012-8-10,84.9,74.3,60.4,63.0,53.5,43.7,94,53,24,29.97,29.85,10,4,16,0.00
2012-8-11,87.6,70.4,52.3,56.9,50.9,46.9,94,56,25,30.05,29.93,4,1,6,0.00
2012-8-12,88.4,75.5,60.4,60.5,56.8,52.7,78,54,37,29.99,29.81,5,2,11,0.00
2012-8-13,78.6,72.3,66.6,65.8,60.6,56.9,81,67,54,29.98,29.82,10,3,14,0.00
2012-8-14,76.0,67.0,57.3,61.8,57.8,53.5,94,74,46,30.04,29.91,6,1,14,0.01
2012-8-15,93.4,79.3,65.6,63.9,60.6,57.3,78,55,34,29.95,29.79,5,2,13,0.00
2012-8-16,98.2,78.9,66.6,71.2,66.3,60.7,96,70,30,29.98,29.77,6,1,10,2.45
2012-8-17,82.6,70.9,58.7,67.1,55.7,44.4,96,64,27,30.06,29.93,7,1,10,0.11
2012-8-18,82.4,68.0,53.5,63.6,55.8,49.7,95,69,34,29.99,29.84,4,1,10,0.00
2012-8-19,86.1,70.5,57.8,66.2,57.2,44.2,96,68,26,29.95,29.87,7,1,13,0.00
2012-8-20,85.5,68.9,53.5,58.8,51.3,41.1,95,62,22,30.01,29.93,6,1,7,0.00
2012-8-21,91.4,72.0,53.5,59.6,50.9,41.6,95,57,18,30.04,29.97,2,0,5,0.00
2012-8-22,91.4,71.5,57.0,61.9,55.4,43.8,91,63,20,30.09,29.97,3,0,5,0.00
2012-8-23,90.7,74.5,58.0,62.3,54.7,48.7,93,57,25,30.08,29.94,5,1,10,0.00
2012-8-24,88.2,75.4,59.8,61.9,54.9,48.3,85,53,27,30.01,29.87,5,1,10,0.00
2012-8-25,82.6,75.0,70.3,72.4,65.1,53.4,94,73,43,29.91,29.85,5,2,10,0.14
2012-8-26,81.2,75.1,71.1,71.7,69.9,68.1,92,84,69,29.98,29.89,3,1,8,0.02
2012-8-27,88.2,76.0,64.5,72.3,65.8,55.9,96,74,38,30.06,29.97,7,1,12,0.00
2012-8-28,91.6,74.0,58.4,67.3,58.9,53.4,96,66,28,30.10,29.95,4,0,9,0.00
2012-8-29,93.8,74.8,59.0,64.5,55.1,44.4,96,59,19,30.01,29.87,4,0,10,0.00
2012-8-30,95.6,78.8,60.9,67.6,60.9,50.9,86,57,30,29.94,29.81,6,1,9,0.00
2012-8-31,76.0,73.3,70.4,73.6,71.1,67.2,96,93,76,29.85,29.69,5,2,9,1.97
2012-9-1,72.8,70.8,69.3,70.7,69.1,67.5,96,94,89,29.89,29.77,4,2,13,0.39
2012-9-2,88.2,76.1,68.4,71.4,68.5,66.0,96,79,50,29.91,29.83,5,1,12,0.00
2012-9-3,95.4,78.6,64.2,74.3,68.9,62.8,97,76,42,29.91,29.81,2,0,6,0.00
2012-9-4,95.9,82.9,72.7,74.9,71.4,68.7,91,71,42,29.89,29.75,4,1,6,0.00
2012-9-5,93.2,80.8,70.9,72.7,68.5,62.1,90,69,37,29.82,29.75,4,0,5,0.00
2012-9-6,94.5,77.7,67.9,73.5,67.3,61.1,96,73,41,29.90,29.81,8,1,8,0.00
2012-9-7,96.3,75.3,64.2,71.8,65.9,60.6,95,76,34,29.93,29.63,17,2,33,0.65
2012-9-8,73.5,63.5,53.6,60.6,52.0,44.8,93,69,40,30.10,29.94,10,4,14,0.00
2012-9-9,77.4,63.0,50.1,56.4,51.3,48.4,96,70,38,30.13,30.03,8,2,13,0.00
2012-9-10,81.1,63.8,49.1,56.9,51.9,47.4,96,69,34,30.20,30.06,4,1,9,0.00
2012-9-11,86.3,70.9,57.0,63.0,56.6,48.2,88,63,29,30.12,30.00,5,1,7,0.00
2012-9-12,84.3,71.0,61.0,61.1,57.8,54.1,86,65,37,30.13,30.02,5,2,10,0.00
2012-9-13,86.3,70.1,59.3,65.8,59.5,54.6,90,71,41,30.23,30.08,10,2,15,0.00
2012-9-14,62.3,59.2,55.1,60.2,57.0,52.8,95,92,83,30.29,30.19,6,2,10,0.18
2012-9-15,64.2,61.1,58.1,63.0,59.8,57.0,97,96,95,30.25,30.10,5,0,9,2.69
2012-9-16,73.2,66.3,61.3,66.2,63.6,60.2,97,91,77,30.10,29.95,2,0,4,0.00
2012-9-17,74.2,67.8,60.9,65.6,63.3,59.0,96,86,65,29.96,29.80,6,1,6,0.00
2012-9-18,68.9,58.6,47.7,60.7,46.9,38.6,91,69,34,30.10,29.86,12,3,14,0.05
2012-9-19,78.3,60.0,45.4,54.1,46.7,40.1,93,66,33,30.15,29.97,5,1,7,0.00
2012-9-20,78.8,64.8,54.2,58.6,52.6,44.4,91,68,31,30.01,29.94,5,1,6,0.00
2012-9-21,82.2,68.2,56.7,65.7,57.4,49.3,96,71,35,29.96,29.81,9,1,11,0.95
2012-9-22,75.6,55.2,47.3,55.0,48.7,45.7,96,82,36,30.10,29.94,7,0,13,0.00
2012-9-24,77.2,71.4,66.6,56.8,54.6,49.3,70,56,44,30.09,29.90,6,3,10,0.00
2012-9-25,88.6,75.3,63.2,66.6,60.8,56.3,89,63,38,29.92,29.80,5,1,11,0.00
2012-9-26,76.7,68.8,62.6,67.5,62.8,56.5,94,82,57,30.05,29.88,5,1,5,0.08
2012-9-27,67.3,65.4,64.5,66.2,64.2,62.7,97,96,92,30.11,30.02,4,1,6,2.05
2012-10-13,75.4,69.1,62.6,65.6,63.3,61.4,97,83,65,30.03,29.73,7,4,11,1.61
2012-10-14,69.8,61.5,47.6,62.3,54.5,45.4,96,79,50,30.04,29.61,6,2,11,0.27
2012-10-15,77.6,57.7,43.1,55.9,48.2,42.0,97,75,37,30.05,29.90,2,0,6,0.00
2012-10-16,79.6,61.9,48.0,53.3,46.3,39.0,96,64,25,29.90,29.62,5,1,9,0.00
2012-10-17,69.1,60.4,55.9,59.9,54.0,45.8,93,80,65,29.61,29.42,5,1,9,0.21
2012-10-18,62.3,58.0,52.9,35.2,30.5,26.9,49,36,27,29.76,29.70,5,2,9,0.01
2012-10-19,54.8,49.9,39.6,41.6,38.3,34.1,92,65,48,29.88,29.67,6,1,9,0.00
2012-10-20,74.6,55.5,36.2,47.5,41.3,34.6,96,65,27,29.92,29.77,4,1,6,0.00
2012-10-21,77.7,65.9,54.5,65.2,56.2,45.9,91,71,62,29.89,29.79,5,2,10,0.00
2012-10-22,81.2,71.3,64.8,65.6,64.0,62.4,93,79,58,29.91,29.83,6,2,14,0.02
2012-10-23,81.8,69.9,60.9,64.5,61.0,57.5,96,75,52,29.93,29.81,5,2,9,0.69
2012-10-24,82.6,71.7,62.1,64.5,61.0,59.1,91,70,50,29.94,29.78,6,3,12,0.00
2012-10-25,75.8,58.8,43.2,64.1,53.0,35.7,93,82,63,30.17,29.75,12,5,21,0.12
2012-10-26,49.1,42.0,36.2,36.7,30.5,28.3,76,64,47,30.38,30.17,12,7,16,0.00
2012-10-27,50.7,38.1,30.1,31.8,28.6,27.0,89,70,41,30.38,30.24,8,2,13,0.00
2012-10-28,52.0,37.8,25.8,32.8,28.2,23.3,93,71,39,30.35,30.25,7,2,15,0.00
2012-10-29,56.6,39.7,28.1,38.0,29.8,24.6,94,72,31,30.38,30.15,2,0,6,0.00
2012-10-30,62.0,44.1,29.3,39.9,32.9,27.3,95,69,33,30.15,29.96,2,0,5,0.00
2012-10-31,62.1,48.2,37.2,39.8,33.6,26.7,87,60,29,30.07,29.97,5,1,12,0.00
2012-11-1,72.5,49.5,33.1,47.2,38.8,31.0,96,72,30,30.08,29.92,2,0,7,0.00
2012-11-2,73.7,55.6,37.9,49.4,43.7,36.1,96,68,39,30.00,29.87,6,2,13,0.00
2012-11-3,59.3,51.2,38.2,47.6,40.7,34.7,92,68,48,30.20,29.88,7,2,14,0.00
2012-11-4,62.4,45.8,31.8,42.6,36.5,30.0,96,73,38,30.27,30.07,2,0,4,0.00
2012-11-5,51.7,47.3,42.9,46.3,42.4,37.3,94,84,60,30.08,29.97,7,2,11,0.07
2012-11-6,55.9,45.2,36.8,43.8,39.8,33.0,95,82,59,30.10,29.99,5,1,10,0.00
2012-11-7,54.4,41.0,31.5,36.9,32.7,28.4,92,74,46,30.17,30.05,11,2,13,0.00
2012-11-8,64.0,49.7,36.0,40.5,36.2,31.4,88,62,38,30.21,30.00,6,3,11,0.00
2012-11-9,75.4,60.2,48.6,57.8,49.2,39.3,80,68,52,30.01,29.87,6,4,13,0.00
2012-11-10,76.0,63.9,54.7,54.2,50.5,46.1,79,64,37,29.99,29.81,10,5,17,0.00
2012-11-11,68.3,52.6,31.9,57.8,47.7,28.2,95,84,69,30.23,29.75,10,4,15,0.61
2012-11-12,47.4,33.7,23.6,28.1,24.0,20.3,89,71,35,30.51,30.25,4,1,13,0.00
2012-11-13,56.5,37.4,22.5,33.7,25.6,19.9,94,68,25,30.57,30.41,2,0,5,0.00
2012-11-14,56.5,39.6,28.1,31.7,27.4,21.7,89,65,27,30.49,30.33,2,0,5,0.00
2012-11-15,59.5,39.1,25.6,37.7,28.9,23.1,92,71,28,30.40,30.32,2,0,5,0.00
2012-11-16,62.9,41.9,27.5,40.1,30.7,25.5,95,71,28,30.48,30.38,2,0,4,0.00
2012-11-17,61.6,43.3,30.1,33.4,29.1,26.0,91,62,26,30.49,30.34,5,1,10,0.00
2012-11-18,64.7,49.7,35.3,34.8,30.1,23.9,76,50,23,30.38,30.22,4,2,10,0.00
2012-11-19,55.6,48.8,39.3,47.4,42.6,34.7,95,80,50,30.25,30.13,5,2,10,0.16
2012-11-20,66.3,47.4,34.7,51.6,40.5,32.6,97,80,44,30.24,30.13,5,1,7,0.00
2012-11-21,67.4,46.0,29.3,48.7,36.3,27.8,96,74,28,30.31,30.11,4,1,7,0.00
2012-11-22,65.6,55.4,41.9,52.5,44.1,36.7,88,67,48,30.15,29.95,11,2,17,0.02
2012-11-23,53.9,38.9,26.4,39.8,26.3,19.4,89,61,44,30.45,30.17,12,3,22,0.00
2012-11-24,48.5,34.0,19.7,24.1,19.0,11.3,87,57,28,30.44,30.06,3,1,5,0.00
2012-11-25,66.4,43.5,28.5,39.9,29.8,22.4,85,62,29,30.06,29.88,3,0,8,0.00
2012-11-26,42.3,38.0,31.0,35.4,30.5,24.9,92,75,56,30.41,29.96,10,4,15,0.00
2012-11-27,46.0,30.7,21.3,25.2,21.0,12.6,89,70,28,30.50,30.36,7,1,11,0.00
2012-11-28,53.2,35.4,19.9,31.3,25.3,17.2,92,70,37,30.50,30.27,4,0,5,0.00
2012-11-29,63.4,46.6,35.9,35.7,31.9,29.3,79,59,30,30.27,30.09,6,2,12,0.00
2012-11-30,66.9,50.4,35.5,50.9,41.7,30.6,86,73,52,30.16,30.04,4,1,8,0.00
2012-12-1,69.1,60.8,53.3,57.4,54.1,49.5,92,80,62,30.05,29.86,8,3,15,0.00
2012-12-2,74.4,62.4,51.7,62.1,56.2,50.3,97,81,53,30.03,29.92,4,1,9,0.00
2012-12-3,74.2,64.0,56.6,59.2,55.5,51.3,95,76,48,29.94,29.81,8,3,15,0.01
2012-12-4,63.2,49.7,31.9,57.5,41.8,29.3,96,77,38,30.36,29.93,10,3,13,0.63
2012-12-5,59.9,41.6,27.5,43.7,30.5,25.6,95,70,28,30.40,30.10,5,1,9,0.00
2012-12-6,59.8,47.3,34.9,46.3,39.4,30.3,95,75,57,30.10,29.86,5,1,11,0.00
2012-12-7,55.7,51.1,46.2,51.3,48.7,43.4,96,92,79,29.91,29.81,1,0,4,0.01
2012-12-8,52.5,49.7,47.1,51.4,46.9,45.4,96,90,81,29.95,29.82,5,1,7,0.00
2012-12-9,52.8,46.3,27.6,51.7,42.6,17.0,96,87,64,30.04,29.78,11,4,19,0.03
2012-12-10,32.7,25.0,16.5,20.4,17.0,13.0,86,72,58,30.16,30.00,9,2,14,0.00
2012-12-11,48.9,27.5,14.0,22.9,17.2,11.1,91,69,26,30.26,30.12,4,1,8,0.00
2012-12-12,50.7,33.0,18.0,22.9,17.5,13.5,87,58,23,30.36,30.25,4,1,9,0.00
2012-12-13,57.5,41.3,29.8,27.8,21.6,16.2,69,47,27,30.31,30.18,6,2,10,0.00
2012-12-14,51.0,42.7,32.2,39.7,28.5,23.4,88,59,39,30.21,29.83,11,3,17,0.13
2012-12-15,63.4,50.2,38.9,47.1,41.1,34.2,93,74,43,29.83,29.65,10,3,16,0.06
2012-12-16,63.7,45.7,34.3,39.6,36.2,31.9,92,73,35,29.77,29.61,4,1,10,0.00
2012-12-17,40.6,37.2,27.3,38.9,35.0,25.4,96,92,83,29.85,29.68,6,2,6,0.00
2012-12-18,61.2,39.7,26.7,38.2,31.8,24.9,95,77,37,29.90,29.76,4,1,6,0.01
2012-12-19,59.3,48.4,29.5,56.1,42.8,27.2,93,81,65,29.88,29.41,8,3,18,0.47
2012-12-20,56.0,35.2,26.3,53.1,28.2,16.2,92,76,58,30.28,29.34,9,4,19,0.02
2012-12-21,45.5,30.5,20.8,22.8,17.1,11.9,86,61,28,30.41,30.28,7,1,10,0.00
2012-12-22,61.0,41.2,21.6,27.5,19.5,11.0,88,48,15,30.31,30.00,5,1,12,0.00
2012-12-23,61.5,46.0,34.3,45.8,37.0,27.0,85,72,53,30.00,29.81,5,1,7,0.00
2012-12-24,37.8,30.0,22.9,30.8,23.0,18.0,87,75,58,30.11,29.85,7,3,12,0.00
2012-12-25,30.3,25.9,21.4,22.1,19.2,15.3,86,76,65,30.20,30.04,13,7,22,0.00
2012-12-26,32.5,24.4,18.9,19.6,16.3,13.2,82,72,58,30.26,30.05,13,5,19,0.00
2012-12-27,37.5,28.6,17.7,25.9,21.1,14.2,88,74,55,30.21,30.01,7,3,14,0.00
2012-12-28,34.4,31.1,27.3,31.5,27.6,21.3,93,87,78,30.06,29.92,5,1,7,0.01
2012-12-29,33.8,24.0,18.6,21.3,16.6,14.0,83,73,51,30.45,30.06,6,2,10,0.00
2012-12-30,43.1,32.1,14.6,24.1,19.0,10.9,89,60,38,30.50,30.25,4,1,7,0.00
2012-12-31,35.5,34.4,32.7,33.9,31.2,19.5,95,89,54,30.26,30.03,3,0,6,0.27
2013-1-1,35.2,28.0,17.0,33.9,25.4,13.5,95,90,81,30.32,30.08,6,2,9,0.01